Regional Weather Roundup
Issued by NWS

Home | Current Version | Previous Version | Graphics & Text | Print | Product List | Glossary On
Versions: 1 2 3 4 5 6 7 8 9 10 11 12 13 14 15 16 17 18 19 20 21 22 23 24 25 26 27 28 29 30 31 32 33 34 35 36 37 38 39 40 41 42 43 44 45 46 47 48 49 50
000
ASUS43 KLSX 301610
RWRMO

WEATHER SUMMARY FOR MISSOURI
NATIONAL WEATHER SERVICE SPRINGFIELD MO
1100 AM CDT MON MAY 30 2016

NOTE: "FAIR" INDICATES FEW OR NO CLOUDS BELOW 12,000 FEET WITH NO
       SIGNIFICANT WEATHER AND/OR OBSTRUCTIONS TO VISIBILITY.
       CURRENT SKY AND/OR WEATHER CONDITIONS ARE NOT AVAILABLE FOR
       CHILLICOTHE AND FARMINGTON.

MOZ001>031-035>038-043-044-053-054-301700-
...NORTHERN AND WESTERN MISSOURI...

CITY           SKY/WX    TMP DP  RH WIND       PRES   REMARKS
KANSAS CTY INT PTSUNNY   80  67  64 S7        30.03F
KANSAS C DTWN  CLOUDY    83  66  56 SE7       30.01F
LEE`S SUMMIT   CLOUDY    78  67  68 SW5       30.04F
ST JOSEPH      SUNNY     81  67  62 S6        30.02S
CHILLICOTHE      N/A     82  68  62 SE5       30.04F
KIRKSVILLE     SUNNY     82  66  58 SW7       30.06F

$$
MOZ066>068-077>081-088>096-101>105-301700-
...SOUTHWEST MISSOURI...

CITY           SKY/WX    TMP DP  RH WIND       PRES   REMARKS
SPRINGFIELD    CLOUDY    81  60  48 VRB5      30.06F
JOPLIN         CLOUDY    75  67  76 SW7       30.07S
BRANSON        CLOUDY    77  63  61 SE6       30.10F

$$
MOZ032>034-039>042-045>050-055>058-069>072-301700-
...CENTRAL MISSOURI...

CITY           SKY/WX    TMP DP  RH WIND       PRES   REMARKS
COLUMBIA       CLOUDY    82  66  58 S5        30.07S
JEFFERSON CITY CLOUDY    82  66  58 CALM      30.05F
ROLLA          SUNNY     80  64  58 CALM      30.07F
SEDALIA        PTSUNNY   82  67  60 CALM      30.06F
WHITEMAN AFB   CLOUDY    80  67  65 S1        30.04F
WARRENSBURG    PTSUNNY   79  64  61 CALM      30.04F

$$
MOZ051-052-059>065-301700-
...EAST CENTRAL MISSOURI...

CITY           SKY/WX    TMP DP  RH WIND       PRES   REMARKS
ST LOUIS INTL  PTSUNNY   86  63  45 W7        30.07F
SPIRIT OF STL  MOSUNNY   84  67  56 W5        30.06S
ST CHARLES     SUNNY     83  65  54 W6        30.05F

$$
MOZ072>076-082>087-097>100-106>115-301700-
...SOUTH CENTRAL AND SOUTHEAST MISSOURI...

CITY           SKY/WX    TMP DP  RH WIND       PRES   REMARKS
CAPE GIRARDEAU SUNNY     82  64  54 E3        30.07S
FARMINGTON     MOSUNNY   82  60  47 CALM      30.10
POPLAR BLUFF   SUNNY     82  61  48 CALM      30.07S
WEST PLAINS    SUNNY     80  64  58 SE5       30.11F

$$




USA.gov is the U.S. government's official web portal to all federal, state and local government web resources and services.